| time (UTC) | temp C | wind direction | speed KPH | gust KPH | rain 1hr cm | rain 24hr cm | rain mn cm | humidity % | barometer mb |
| 20260504041557 | 10 | 227 | 8.0 | 0.0 | 0.00 | 0.00 | 0.00 | 60 | 1006.8 |
| 20260504040114 | 11 | 211 | 6.4 | 0.0 | 0.00 | 0.00 | 0.00 | 59 | 1006.8 |
| 20260504034554 | 11 | 261 | 4.8 | 0.0 | 0.00 | 0.00 | 0.00 | 57 | 1006.8 |
| 20260504033053 | 11 | 263 | 4.8 | 0.0 | 0.00 | 0.00 | 0.00 | 57 | 1006.8 |
| 20260504031558 | 11 | 252 | 12.9 | 0.0 | 0.00 | 0.00 | 0.00 | 56 | 1006.9 |
| 20260504030052 | 11 | 277 | 9.7 | 0.0 | 0.00 | 0.00 | 0.00 | 54 | 1006.9 |
| 20260504024551 | 11 | 233 | 6.4 | 0.0 | 0.00 | 0.00 | 0.00 | 50 | 1006.9 |
| 20260504023059 | 11 | 241 | 8.0 | 0.0 | 0.00 | 0.00 | 0.00 | 48 | 1007.2 |
| 20260504021552 | 11 | 226 | 4.8 | 0.0 | 0.00 | 0.00 | 0.00 | 46 | 1007.3 |
| 20260504020049 | 12 | 223 | 3.2 | 0.0 | 0.00 | 0.00 | 0.00 | 44 | 1007.2 |
| 20260504014600 | 12 | 255 | 3.2 | 0.0 | 0.00 | 0.00 | 0.00 | 43 | 1007.0 |
| 20260504013048 | 12 | 246 | 4.8 | 0.0 | 0.00 | 0.00 | 0.00 | 43 | 1007.1 |
| 20260504011548 | 12 | 283 | 4.8 | 0.0 | 0.00 | 0.00 | 0.00 | 43 | 1007.1 |
| 20260504010052 | 12 | 271 | 8.0 | 0.0 | 0.00 | 0.00 | 0.00 | 42 | 1007.0 |
| 20260504004551 | 12 | 242 | 8.0 | 0.0 | 0.00 | 0.00 | 0.00 | 39 | 1006.8 |
| 20260504003055 | 12 | 242 | 6.4 | 0.0 | 0.00 | 0.00 | 0.00 | 37 | 1006.7 |
| 20260504001602 | 13 | 273 | 6.4 | 0.0 | 0.00 | 0.00 | 0.00 | 36 | 1006.6 |
| 20260504000047 | 13 | 254 | 9.7 | 0.0 | 0.00 | 0.00 | 0.00 | 35 | 1006.5 |
| 20260503234545 | 13 | 267 | 8.0 | 0.0 | 0.00 | 0.00 | 0.00 | 33 | 1006.5 |
| 20260503233045 | 14 | 251 | 6.4 | 0.0 | 0.00 | 0.00 | 0.00 | 31 | 1006.4 |
| 20260503231544 | 14 | 257 | 8.0 | 0.0 | 0.00 | 0.00 | 0.00 | 29 | 1006.4 |
| 20260503230043 | 14 | 296 | 6.4 | 0.0 | 0.00 | 0.00 | 0.00 | 28 | 1006.4 |
| 20260503224545 | 15 | 273 | 6.4 | 0.0 | 0.00 | 0.00 | 0.00 | 28 | 1006.4 |
| 20260503223043 | 15 | 285 | 8.0 | 0.0 | 0.00 | 0.00 | 0.00 | 27 | 1006.4 |
| 20260503221551 | 15 | 304 | 8.0 | 0.0 | 0.00 | 0.00 | 0.00 | 26 | 1006.6 |
| 20260503220040 | 15 | 259 | 9.7 | 0.0 | 0.00 | 0.00 | 0.00 | 26 | 1006.7 |
| 20260503214539 | 15 | 278 | 9.7 | 0.0 | 0.00 | 0.00 | 0.00 | 26 | 1006.6 |
| 20260503213039 | 15 | 254 | 4.8 | 0.0 | 0.00 | 0.00 | 0.00 | 27 | 1006.7 |
| 20260503211538 | 15 | 238 | 9.7 | 0.0 | 0.00 | 0.00 | 0.00 | 26 | 1006.8 |
| 20260503210035 | 15 | 271 | 6.4 | 0.0 | 0.00 | 0.00 | 0.00 | 26 | 1006.8 |
| 20260503204539 | 15 | 275 | 9.7 | 0.0 | 0.00 | 0.00 | 0.00 | 27 | 1006.9 |
| 20260503203034 | 15 | 256 | 11.3 | 0.0 | 0.00 | 0.00 | 0.00 | 26 | 1007.1 |
| 20260503201532 | 15 | 219 | 6.4 | 0.0 | 0.00 | 0.00 | 0.00 | 27 | 1007.2 |
| 20260503200029 | 15 | 271 | 4.8 | 0.0 | 0.00 | 0.00 | 0.00 | 27 | 1007.4 |
| 20260503194531 | 15 | 246 | 8.0 | 0.0 | 0.00 | 0.00 | 0.00 | 27 | 1007.7 |
| 20260503193037 | 15 | 244 | 9.7 | 0.0 | 0.00 | 0.00 | 0.00 | 28 | 1008.0 |
| 20260503191522 | 15 | 301 | 6.4 | 0.0 | 0.00 | 0.00 | 0.00 | 30 | 1008.1 |
| 20260503190024 | 14 | 221 | 8.0 | 0.0 | 0.00 | 0.00 | 0.00 | 30 | 1008.3 |
| 20260503184524 | 15 | 277 | 8.0 | 0.0 | 0.00 | 0.00 | 0.00 | 30 | 1008.4 |
| 20260503183016 | 15 | 298 | 8.0 | 0.0 | 0.00 | 0.00 | 0.00 | 29 | 1008.7 |
| 20260503181517 | 15 | 309 | 11.3 | 0.0 | 0.00 | 0.00 | 0.00 | 29 | 1009.0 |
| 20260503180017 | 14 | 260 | 11.3 | 0.0 | 0.00 | 0.00 | 0.00 | 31 | 1009.1 |
| 20260503174508 | 13 | 292 | 9.7 | 0.0 | 0.00 | 0.00 | 0.00 | 31 | 1009.2 |
| 20260503173016 | 12 | 269 | 9.7 | 0.0 | 0.00 | 0.00 | 0.00 | 33 | 1009.6 |
| 20260503171507 | 12 | 240 | 8.0 | 0.0 | 0.00 | 0.00 | 0.00 | 32 | 1009.8 |
| 20260503081523 | 4 | 336 | 0.0 | 0.0 | 0.00 | 0.00 | 0.00 | 66 | 1012.6 |
| 20260503071518 | 4 | 340 | 1.6 | 0.0 | 0.00 | 0.00 | 0.00 | 66 | 1012.6 |
| 20260503054508 | 5 | 340 | 1.6 | 0.0 | 0.00 | 0.00 | 0.00 | 64 | 1012.9 |
| 20260503053009 | 5 | 297 | 1.6 | 0.0 | 0.00 | 0.00 | 0.00 | 62 | 1012.9 |
| 20260503051504 | 5 | 297 | 1.6 | 0.0 | 0.00 | 0.00 | 0.00 | 61 | 1013.0 |
| 20260503050002 | 6 | 302 | 1.6 | 0.0 | 0.00 | 0.00 | 0.00 | 60 | 1013.1 |
| 20260503044602 | 6 | 284 | 3.2 | 0.0 | 0.00 | 0.00 | 0.00 | 59 | 1013.1 |
| 20260503043059 | 6 | 271 | 3.2 | 0.0 | 0.00 | 0.00 | 0.00 | 59 | 1013.2 |